GW3498 Weather Reports


Display with metric or nautical units.
time (UTC)temp
F
wind
direction
speed
MPH
gust
MPH
rain 1hr
in
rain 24hr
in
rain mn
in
humidity
%
barometer
mb
20260901230525 74 49 0.0 1.0 0.00 0.00 0.00 56 1018.4
20260901225522 74 68 0.0 1.0 0.00 0.00 0.00 57 1018.4
20260901224535 74 0.0 0.0 0.00 0.00 0.00 57 1018.4
20260901223549 74 46 0.0 1.0 0.00 0.00 0.00 61 1018.4
20260901222523 75 0.0 0.0 0.00 0.00 0.00 62 1018.6
20260901221518 75 45 0.0 1.0 0.00 0.00 0.00 61 1018.5
20260901220533 75 47 0.0 1.0 0.00 0.00 0.00 61 1018.6
20260901215528 74 9 0.0 1.0 0.00 0.00 0.00 63 1018.6
20260901214521 75 18 0.0 1.0 0.00 0.00 0.00 64 1018.6
20260901213555 75 0.0 0.0 0.00 0.00 0.00 65 1018.6
20260901212530 75 0.0 0.0 0.00 0.00 0.00 65 1018.6
20260901211525 76 0.0 0.0 0.00 0.00 0.00 64 1018.7
20260901210518 77 0.0 0.0 0.00 0.00 0.00 64 1018.6
20260901205534 77 40 0.0 1.0 0.00 0.00 0.00 63 1018.7
20260901204530 78 30 0.0 1.0 0.00 0.00 0.00 62 1018.7
20260901203523 78 37 0.0 2.0 0.00 0.00 0.00 61 1018.6
20260901202542 78 27 0.0 1.0 0.00 0.00 0.00 60 1018.6
20260901201535 78 5 1.0 3.0 0.00 0.00 0.00 60 1018.6
20260901200550 77 45 0.0 1.0 0.00 0.00 0.00 62 1018.6
20260901195527 78 0.0 0.0 0.00 0.00 0.00 60 1018.6
20260901194520 78 289 1.0 2.0 0.00 0.00 0.00 58 1018.5
20260901193556 79 0.0 0.0 0.00 0.00 0.00 57 1018.5
20260901192531 79 5 0.0 2.0 0.00 0.00 0.00 56 1018.4
20260901191526 80 360 2.0 4.0 0.00 0.00 0.00 56 1018.3
20260901190542 80 17 1.0 2.0 0.00 0.00 0.00 55 1018.3
20260901185517 80 8 2.0 4.0 0.00 0.00 0.00 54 1018.2
20260901184531 80 14 2.0 4.0 0.00 0.00 0.00 53 1018.1
20260901183527 81 17 1.0 2.0 0.00 0.00 0.00 53 1018.1
20260901182522 81 12 1.0 2.0 0.00 0.00 0.00 52 1018.0
20260901181517 81 357 2.0 6.0 0.00 0.00 0.00 51 1018.0
20260901180532 82 8 2.0 6.0 0.00 0.00 0.00 50 1018.0
20260901175527 82 353 1.0 6.0 0.00 0.00 0.00 49 1017.9
20260901174521 82 45 1.0 3.0 0.00 0.00 0.00 49 1017.8
20260901173516 83 16 1.0 2.0 0.00 0.00 0.00 48 1017.7
20260901172531 83 20 1.0 3.0 0.00 0.00 0.00 48 1017.8
20260901171525 84 70 1.0 3.0 0.00 0.00 0.00 47 1017.9
20260901170519 84 10 2.0 6.0 0.00 0.00 0.00 46 1017.8
20260901165534 85 227 1.0 3.0 0.00 0.00 0.00 44 1017.9
20260901164530 85 324 2.0 4.0 0.00 0.00 0.00 44 1017.8
20260901163523 86 343 2.0 8.0 0.00 0.00 0.00 43 1017.9
20260901162517 87 343 2.0 6.0 0.00 0.00 0.00 43 1017.9
20260901161532 88 339 2.0 4.0 0.00 0.00 0.00 43 1017.8
20260901160526 89 182 2.0 7.0 0.00 0.00 0.00 42 1017.8
20260901155521 89 20 3.0 13.0 0.00 0.00 0.00 42 1017.7
20260901154516 89 20 3.0 6.0 0.00 0.00 0.00 41 1017.6
20260901153532 90 342 2.0 10.0 0.00 0.00 0.00 40 1017.5
20260901152525 90 225 2.0 7.0 0.00 0.00 0.00 39 1017.3
20260901151522 91 285 2.0 7.0 0.00 0.00 0.00 39 1017.4
20260901150535 91 149 3.0 9.0 0.00 0.00 0.00 39 1017.3
20260901145529 91 266 2.0 7.0 0.00 0.00 0.00 38 1017.2
20260901144525 92 282 2.0 4.0 0.00 0.00 0.00 38 1017.4
20260901143519 93 254 2.0 7.0 0.00 0.00 0.00 30 1017.1
20260901142535 94 304 2.0 4.0 0.00 0.00 0.00 29 1017.2
20260901141528 93 247 2.0 4.0 0.00 0.00 0.00 29 1017.2
20260901140544 94 198 3.0 7.0 0.00 0.00 0.00 29 1017.1
20260901135518 93 292 2.0 3.0 0.00 0.00 0.00 30 1017.3
20260901134552 93 308 2.0 6.0 0.00 0.00 0.00 29 1017.3
20260901133527 94 243 2.0 7.0 0.00 0.00 0.00 30 1017.3
20260901132520 94 237 2.0 6.0 0.00 0.00 0.00 29 1017.5
20260901131535 93 103 2.0 7.0 0.00 0.00 0.00 29 1017.5
20260901130550 93 279 2.0 7.0 0.00 0.00 0.00 30 1017.5
20260901125526 94 224 2.0 7.0 0.00 0.00 0.00 27 1017.5
20260901124521 93 257 2.0 6.0 0.00 0.00 0.00 28 1017.7
20260901123535 93 219 2.0 4.0 0.00 0.00 0.00 27 1017.7
20260901122530 93 8 2.0 4.0 0.00 0.00 0.00 28 1017.6
20260901121524 94 220 2.0 4.0 0.00 0.00 0.00 27 1017.7
20260901120518 93 278 2.0 6.0 0.00 0.00 0.00 25 1017.9
20260901115533 93 218 1.0 6.0 0.00 0.00 0.00 29 1017.8
20260901114528 94 262 2.0 4.0 0.00 0.00 0.00 33 1017.8
20260901113525 93 270 2.0 3.0 0.00 0.00 0.00 31 1017.9
20260901112540 92 208 1.0 6.0 0.00 0.00 0.00 33 1017.8
20260901111534 91 196 2.0 6.0 0.00 0.00 0.00 34 1017.8
20260901110549 91 241 2.0 6.0 0.00 0.00 0.00 35 1017.8
20260901105523 92 251 1.0 2.0 0.00 0.00 0.00 36 1017.9
20260901104518 90 214 1.0 4.0 0.00 0.00 0.00 38 1017.9
20260901103533 90 249 2.0 6.0 0.00 0.00 0.00 38 1018.0
20260901102527 90 329 2.0 6.0 0.00 0.00 0.00 39 1018.0
20260901101522 90 201 2.0 4.0 0.00 0.00 0.00 40 1018.1
20260901100518 90 240 1.0 3.0 0.00 0.00 0.00 42 1018.1
20260901095531 89 225 1.0 6.0 0.00 0.00 0.00 42 1018.1
20260901094525 89 19 2.0 4.0 0.00 0.00 0.00 41 1018.2
20260901093540 90 261 1.0 3.0 0.00 0.00 0.00 41 1018.2
20260901092556 89 269 1.0 3.0 0.00 0.00 0.00 40 1018.1
20260901091549 88 355 2.0 6.0 0.00 0.00 0.00 39 1018.1
20260901090546 88 34 1.0 4.0 0.00 0.00 0.00 40 1018.0
20260901085521 88 348 2.0 4.0 0.00 0.00 0.00 42 1018.0
20260901084535 87 13 2.0 6.0 0.00 0.00 0.00 43 1018.1
20260901083528 86 180 1.0 3.0 0.00 0.00 0.00 44 1018.0
20260901082524 85 198 1.0 3.0 0.00 0.00 0.00 45 1018.0
20260901081538 85 155 1.0 1.0 0.00 0.00 0.00 46 1017.9
20260901080533 85 220 0.0 2.0 0.00 0.00 0.00 47 1018.0
20260901075527 84 185 1.0 2.0 0.00 0.00 0.00 49 1017.8
20260901074522 83 176 1.0 2.0 0.00 0.00 0.00 50 1017.9
20260901073543 81 144 0.0 2.0 0.00 0.00 0.00 52 1017.8
20260901072534 78 176 0.0 1.0 0.00 0.00 0.00 58 1017.7
20260901071528 77 183 0.0 1.0 0.00 0.00 0.00 60 1017.6
20260901070522 77 129 0.0 1.0 0.00 0.00 0.00 58 1017.6
20260901065516 76 119 0.0 1.0 0.00 0.00 0.00 58 1017.6
20260901064531 75 176 0.0 1.0 0.00 0.00 0.00 59 1017.6
20260901063525 75 0.0 0.0 0.00 0.00 0.00 59 1017.7
20260901062520 74 181 0.0 1.0 0.00 0.00 0.00 62 1017.7
20260901061534 74 0.0 0.0 0.00 0.00 0.00 66 1017.8
20260901060531 74 1 0.0 1.0 0.00 0.00 0.00 66 1017.8
20260901055544 73 3 0.0 1.0 0.00 0.00 0.00 68 1017.6
20260901054518 72 14 0.0 1.0 0.00 0.00 0.00 71 1017.7
20260901053532 72 0.0 0.0 0.00 0.00 0.00 72 1017.6
20260901052526 72 22 0.0 1.0 0.00 0.00 0.00 71 1017.5
20260901051522 73 18 0.0 1.0 0.00 0.00 0.00 70 1017.5
20260901050516 73 32 0.0 1.0 0.00 0.00 0.00 70 1017.5
20260901045530 72 16 1.0 2.0 0.00 0.00 0.00 70 1017.4
20260901044525 72 81 0.0 1.0 0.00 0.00 0.00 70 1017.3
20260901043539 73 38 0.0 1.0 0.00 0.00 0.00 62 1017.4
20260901042534 78 85 1.0 2.0 0.00 0.00 0.00 48 1017.1
20260901041530 78 63 1.0 1.0 0.00 0.00 0.00 46 1017.1
20260901040524 78 24 2.0 3.0 0.00 0.00 0.00 46 1017.2
20260901035518 78 20 1.0 3.0 0.00 0.00 0.00 47 1017.2
20260901034533 78 24 2.0 3.0 0.00 0.00 0.00 48 1017.3
20260901033529 78 22 1.0 3.0 0.00 0.00 0.00 48 1017.3
20260901032522 77 9 2.0 4.0 0.00 0.00 0.00 49 1017.3
20260901031517 73 26 1.0 2.0 0.00 0.00 0.00 63 1017.5
20260901030531 73 352 1.0 1.0 0.00 0.00 0.00 69 1017.4
20260901025527 73 5 1.0 2.0 0.00 0.00 0.00 72 1017.4
20260901024520 74 345 2.0 4.0 0.00 0.00 0.00 74 1017.4
20260901023536 74 344 2.0 6.0 0.00 0.00 0.00 73 1017.3
20260901022530 74 356 2.0 3.0 0.00 0.00 0.00 71 1017.3
20260901021524 74 10 1.0 3.0 0.00 0.00 0.00 72 1017.3
20260901020519 74 345 2.0 3.0 0.00 0.00 0.00 72 1017.2
20260901015533 74 322 2.0 7.0 0.00 0.00 0.00 77 1017.1
20260901014528 74 342 2.0 7.0 0.00 0.00 0.00 78 1017.3
20260901013525 74 356 3.0 7.0 0.00 0.00 0.00 76 1017.2
20260901012517 74 326 2.0 6.0 0.00 0.00 0.00 78 1017.2
20260901011537 74 349 2.0 7.0 0.00 0.00 0.00 77 1017.3
20260901010526 74 336 2.0 6.0 0.00 0.00 0.00 74 1017.3
20260901005541 74 351 2.0 6.0 0.00 0.00 0.00 73 1017.2
20260901004516 73 3 1.0 2.0 0.00 0.00 0.00 75 1017.1
20260901003612 73 4 1.0 2.0 0.00 0.00 0.00 80 1017.1
20260901002525 73 18 0.0 1.0 0.00 0.00 0.00 78 1017.0
20260901001519 75 241 0.0 2.0 0.00 0.00 0.00 75 1017.0
20260901000615 76 7 1.0 3.0 0.00 0.00 0.00 68 1017.1
20260831235528 76 11 2.0 8.0 0.00 0.00 0.00 69 1017.1
20260831234522 76 6 2.0 6.0 0.00 0.00 0.00 73 1017.2
20260831233517 75 7 2.0 3.0 0.00 0.00 0.00 75 1017.2
20260831232531 75 332 1.0 4.0 0.00 0.00 0.00 75 1017.3
20260831231525 75 351 1.0 3.0 0.00 0.00 0.00 78 1017.0